TDRS 11

Last updated on July 6, 2021, 3:27 p.m. UTC

1 39070U 13004A   21186.82753039  .00000091  00000-0  00000+0 0  9991
2 39070   3.3075 337.8512 0006586  76.1994 353.6544  1.00265487 30869
UTC
Height (km)
Latitude
Longitude
Inclination
Orbital Period
UTC large
Height (km)
Speed (km/s)
/
Latitude / Longitude
Inclination (degrees)
Orbital Period (minutes)
Azimuth
Elevation
Range (km)
Doppler Factor
iOS Compass Heading
iOS Angle